Tracking 19245 objects as of 17-Aug-2018
HD Live streaming from Space Station
objects crossing your sky now

COSMOS 402

Track COSMOS 402 now!
10-day predictions
COSMOS 402 is classified as:


NORAD ID: 5105
Int'l Code: 1971-025A
Perigee: 974.3 km
Apogee: 1,017.2 km
Inclination: 65.0 °
Period: 104.9 minutes
Semi major axis: 7366 km
RCS: 3.1116 m2 (large)
Launch date: April 1, 1971
Source: Commonwealth of Independent States (former USSR) (CIS)
Launch site: TYURATAM MISSILE AND SPACE COMPLEX (TTMTR)
aabbcc
Your satellite tracking list
Your tracking list is empty




NASA's NSSDC Master Catalog

Two Line Element Set (TLE):
1 05105U 71025A   18228.75724366 -.00000061  00000-0  26743-4 0  9991
2 05105  64.9831 326.0674 0029104 125.1021  34.7051 13.73048921375159
Source of the keplerian elements: AFSPC